When you browse on this site, cookies collect data to enhance your experience and personalize the content and advertising you see.
Visit our Privacy Policy to learn more. By continuing to use the site, you agree to this use of cookies and data.

Stündliche Wetter Bolshie Meteski

Heute, 23 September, Mittwoch

Zeit Temperatur Niederschläge Wind Luftdruck Luftfeuchtigkeit
00:00 +13°C° 0.1 mm 6 m/S 743 mmHg 86%
01:00 +13°C° 0 mm 6 m/S 743 mmHg 86%
02:00 +11°C° 0 mm 6 m/S 743 mmHg 87%
03:00 +11°C° 0 mm 6 m/S 743 mmHg 87%
04:00 +10°C° 0 mm 6 m/S 744 mmHg 89%
05:00 +10°C° 0 mm 6 m/S 744 mmHg 91%
06:00 +9°C° 0 mm 6 m/S 745 mmHg 93%
07:00 +10°C° 0 mm 6 m/S 745 mmHg 87%
08:00 +11°C° 0 mm 7 m/S 746 mmHg 82%
09:00 +12°C° 0 mm 7 m/S 747 mmHg 76%
10:00 +12°C° 0.1 mm 7 m/S 747 mmHg 69%
11:00 +14°C° 0.1 mm 7 m/S 748 mmHg 62%
12:00 +14°C° 0.1 mm 7 m/S 748 mmHg 55%
13:00 +14°C° 0 mm 7 m/S 749 mmHg 53%
14:00 +14°C° 0 mm 6 m/S 749 mmHg 52%
15:00 +14°C° 0 mm 6 m/S 750 mmHg 53%
16:00 +13°C° 0 mm 5 m/S 750 mmHg 58%
17:00 +11°C° 0 mm 4 m/S 751 mmHg 63%
18:00 +10°C° 0 mm 3 m/S 751 mmHg 68%
19:00 +9°C° 0 mm 3 m/S 752 mmHg 70%
20:00 +8°C° 0 mm 2 m/S 753 mmHg 72%
21:00 +8°C° 0 mm 2 m/S 753 mmHg 74%
22:00 +7°C° 0 mm 2 m/S 754 mmHg 76%
23:00 +8°C° 0 mm 1 m/S 754 mmHg 78%

Morgen, 24 September, Donnerstag

Zeit Temperatur Niederschläge Wind Luftdruck Luftfeuchtigkeit
00:00 +7°C° 0 mm 1 m/S 754 mmHg 80%
01:00 +7°C° 0 mm 1 m/S 755 mmHg 81%
02:00 +7°C° 0 mm 1 m/S 755 mmHg 83%
03:00 +5°C° 0 mm 0 m/S 756 mmHg 84%
04:00 +5°C° 0 mm 0 m/S 756 mmHg 84%
05:00 +5°C° 0 mm 0 m/S 756 mmHg 83%
06:00 +5°C° 0 mm 0 m/S 757 mmHg 83%
07:00 +7°C° 0 mm 0 m/S 757 mmHg 76%
08:00 +10°C° 0 mm 1 m/S 758 mmHg 70%
09:00 +12°C° 0 mm 1 m/S 758 mmHg 63%
10:00 +13°C° 0 mm 1 m/S 758 mmHg 58%
11:00 +14°C° 0 mm 1 m/S 758 mmHg 54%
12:00 +15°C° 0 mm 2 m/S 758 mmHg 49%
13:00 +15°C° 0 mm 2 m/S 758 mmHg 49%
14:00 +16°C° 0 mm 2 m/S 758 mmHg 50%
15:00 +16°C° 0 mm 2 m/S 758 mmHg 50%
16:00 +14°C° 0 mm 2 m/S 758 mmHg 56%
17:00 +12°C° 0 mm 2 m/S 758 mmHg 62%
18:00 +10°C° 0 mm 2 m/S 758 mmHg 68%
19:00 +9°C° 0 mm 2 m/S 759 mmHg 69%
20:00 +9°C° 0 mm 2 m/S 759 mmHg 70%
21:00 +8°C° 0 mm 2 m/S 759 mmHg 71%
22:00 +8°C° 0 mm 2 m/S 759 mmHg 72%
23:00 +8°C° 0 mm 2 m/S 759 mmHg 73%

übermorgen, 25 September, Freitag

Zeit Temperatur Niederschläge Wind Luftdruck Luftfeuchtigkeit
00:00 +8°C° 0 mm 2 m/S 759 mmHg 74%
01:00 +8°C° 0 mm 2 m/S 760 mmHg 74%
02:00 +7°C° 0 mm 2 m/S 760 mmHg 75%
03:00 +7°C° 0 mm 2 m/S 760 mmHg 75%
04:00 +7°C° 0 mm 2 m/S 760 mmHg 76%
05:00 +7°C° 0 mm 2 m/S 760 mmHg 77%
06:00 +7°C° 0 mm 3 m/S 760 mmHg 79%
07:00 +9°C° 0 mm 3 m/S 760 mmHg 74%
08:00 +10°C° 0 mm 3 m/S 760 mmHg 70%
09:00 +12°C° 0 mm 3 m/S 761 mmHg 65%
10:00 +13°C° 0 mm 3 m/S 760 mmHg 63%
11:00 +14°C° 0 mm 3 m/S 760 mmHg 61%
12:00 +16°C° 0 mm 3 m/S 760 mmHg 58%
13:00 +16°C° 0 mm 3 m/S 760 mmHg 59%
14:00 +16°C° 0 mm 3 m/S 760 mmHg 59%
15:00 +16°C° 0 mm 3 m/S 760 mmHg 60%
16:00 +14°C° 0 mm 2 m/S 760 mmHg 64%
17:00 +13°C° 0 mm 2 m/S 760 mmHg 69%
18:00 +12°C° 0 mm 2 m/S 760 mmHg 74%
19:00 +10°C° 0 mm 2 m/S 760 mmHg 74%
20:00 +10°C° 0 mm 2 m/S 760 mmHg 75%
21:00 +10°C° 0 mm 2 m/S 761 mmHg 76%
22:00 +9°C° 0 mm 2 m/S 761 mmHg 76%
23:00 +9°C° 0 mm 2 m/S 761 mmHg 76%

26 September, Samstag

Zeit Temperatur Niederschläge Wind Luftdruck Luftfeuchtigkeit
00:00 +9°C° 0 mm 2 m/S 761 mmHg 76%
01:00 +9°C° 0 mm 2 m/S 761 mmHg 76%
02:00 +8°C° 0 mm 2 m/S 761 mmHg 77%
03:00 +8°C° 0 mm 2 m/S 761 mmHg 77%
04:00 +8°C° 0 mm 2 m/S 761 mmHg 77%
05:00 +8°C° 0 mm 2 m/S 761 mmHg 76%
06:00 +7°C° 0 mm 2 m/S 761 mmHg 76%
07:00 +9°C° 0 mm 3 m/S 761 mmHg 72%
08:00 +10°C° 0 mm 3 m/S 762 mmHg 68%
09:00 +12°C° 0 mm 3 m/S 762 mmHg 63%
10:00 +13°C° 0 mm 3 m/S 762 mmHg 60%
11:00 +14°C° 0 mm 3 m/S 762 mmHg 57%
12:00 +16°C° 0 mm 3 m/S 762 mmHg 54%
13:00 +16°C° 0 mm 3 m/S 762 mmHg 55%
14:00 +16°C° 0 mm 3 m/S 762 mmHg 55%
15:00 +17°C° 0 mm 3 m/S 762 mmHg 55%
16:00 +14°C° 0 mm 3 m/S 762 mmHg 60%
17:00 +13°C° 0 mm 3 m/S 762 mmHg 65%
18:00 +12°C° 0 mm 2 m/S 762 mmHg 70%
19:00 +12°C° 0 mm 2 m/S 762 mmHg 70%
20:00 +10°C° 0 mm 2 m/S 762 mmHg 71%
21:00 +10°C° 0 mm 2 m/S 763 mmHg 71%
22:00 +10°C° 0 mm 2 m/S 763 mmHg 72%
23:00 +9°C° 0 mm 2 m/S 763 mmHg 72%

27 September, Sonntag

Zeit Temperatur Niederschläge Wind Luftdruck Luftfeuchtigkeit
00:00 +9°C° 0 mm 2 m/S 763 mmHg 73%
01:00 +9°C° 0 mm 2 m/S 763 mmHg 73%
02:00 +9°C° 0 mm 2 m/S 763 mmHg 73%
03:00 +9°C° 0 mm 2 m/S 763 mmHg 73%
04:00 +8°C° 0 mm 2 m/S 764 mmHg 74%
05:00 +8°C° 0 mm 2 m/S 764 mmHg 75%
06:00 +7°C° 0 mm 2 m/S 764 mmHg 76%
07:00 +9°C° 0 mm 2 m/S 764 mmHg 72%
08:00 +12°C° 0 mm 2 m/S 764 mmHg 67%
09:00 +12°C° 0 mm 3 m/S 764 mmHg 63%
10:00 +13°C° 0 mm 3 m/S 764 mmHg 59%
11:00 +14°C° 0 mm 3 m/S 764 mmHg 55%
12:00 +17°C° 0 mm 3 m/S 764 mmHg 51%
13:00 +17°C° 0 mm 3 m/S 764 mmHg 51%
14:00 +17°C° 0 mm 2 m/S 764 mmHg 52%
15:00 +17°C° 0 mm 2 m/S 764 mmHg 52%
16:00 +15°C° 0 mm 2 m/S 763 mmHg 57%
17:00 +14°C° 0 mm 2 m/S 763 mmHg 61%
18:00 +12°C° 0 mm 1 m/S 763 mmHg 66%
19:00 +12°C° 0 mm 1 m/S 763 mmHg 67%
20:00 +11°C° 0 mm 1 m/S 763 mmHg 69%
21:00 +11°C° 0 mm 1 m/S 763 mmHg 70%
22:00 +10°C° 0 mm 1 m/S 764 mmHg 71%
23:00 +10°C° 0 mm 1 m/S 764 mmHg 71%

28 September, Montag

Zeit Temperatur Niederschläge Wind Luftdruck Luftfeuchtigkeit
00:00 +10°C° 0 mm 1 m/S 764 mmHg 72%
01:00 +10°C° 0 mm 1 m/S 764 mmHg 73%
02:00 +10°C° 0 mm 1 m/S 764 mmHg 73%
03:00 +9°C° 0 mm 1 m/S 764 mmHg 74%
04:00 +9°C° 0 mm 1 m/S 764 mmHg 75%
05:00 +9°C° 0 mm 1 m/S 764 mmHg 76%
06:00 +9°C° 0 mm 1 m/S 764 mmHg 77%
07:00 +10°C° 0 mm 1 m/S 764 mmHg 72%
08:00 +12°C° 0 mm 1 m/S 764 mmHg 67%
09:00 +13°C° 0 mm 2 m/S 764 mmHg 62%
10:00 +14°C° 0 mm 2 m/S 764 mmHg 58%
11:00 +15°C° 0 mm 2 m/S 764 mmHg 54%
12:00 +16°C° 0 mm 2 m/S 764 mmHg 50%
13:00 +16°C° 0 mm 2 m/S 764 mmHg 50%
14:00 +16°C° 0 mm 2 m/S 764 mmHg 51%
15:00 +16°C° 0 mm 2 m/S 763 mmHg 51%
16:00 +15°C° 0 mm 1 m/S 763 mmHg 56%
17:00 +13°C° 0 mm 1 m/S 763 mmHg 60%
18:00 +11°C° 0 mm 1 m/S 763 mmHg 65%
19:00 +10°C° 0 mm 0 m/S 763 mmHg 66%
20:00 +10°C° 0 mm 0 m/S 764 mmHg 66%
21:00 +9°C° 0 mm 0 m/S 764 mmHg 67%
22:00 +9°C° 0 mm 0 m/S 764 mmHg 68%
23:00 +9°C° 0 mm 0 m/S 764 mmHg 69%
Mehr zeigen